Temp_Advection
nan nan nan nan nan nan nan nan nan nan nan nan nan nan nan nan nan nan nan nan nan nan nan nan nan nan nan nan nan nan nan nan nan nan nan nan nan nan nan nan nan nan nan nan nan nan nan nan nan
nan -0 -0 -1 -0 -0 0 -0 -0 -0 -1 -1 -0 0 -0 -0 -1 0 -0 -0 -0 0 -1 -0 -0 -0 -0 0 0 -0 0 0 0 0 0 0 0 -0 -0 -0 -0 -0 -0 -0 0 0 -0 -0 nan
nan -1 -1 -0 -0 -0 -0 -0 -0 -0 -0 -0 -0 -0 -0 -1 -1 -1 -1 -0 -0 0 0 -0 -0 -0 -0 -0 0 0 0 0 0 0 0 0 0 -0 -0 -0 -0 -0 -0 0 0 -0 -0 0 nan
nan -1 -1 0 -0 -0 -0 -0 -0 -1 -0 -0 -0 -1 -1 -0 -0 -0 -1 -0 -0 -0 0 0 0 0 -0 0 -0 -0 -0 -0 0 -0 -0 -0 -0 -0 -0 -0 -0 -0 -0 -0 -0 -0 -0 0 nan
nan -1 -0 -0 -0 0 -0 -0 -0 -0 -0 -0 -0 -1 -1 -0 0 0 -0 0 -0 -1 -0 0 0 -0 -0 -0 -0 -0 -0 -0 -0 -0 -0 0 0 0 -0 -0 -0 -0 -0 -0 -0 -0 0 0 nan
nan -0 0 -0 -0 -0 -0 -0 -0 -0 -0 -0 -0 -1 -1 -0 -0 -0 -0 -0 0 -0 -0 -0 0 -0 -0 0 -0 -0 -0 0 0 0 0 0 0 0 0 -0 -0 -0 -0 -0 -0 -0 0 0 nan
nan -0 -0 -0 -0 -0 -0 -0 -0 -0 -0 -0 0 -1 -1 -1 -0 -0 -0 -0 0 -0 -0 -0 0 0 0 0 0 0 0 0 0 0 0 0 0 0 0 -0 -0 0 0 0 0 0 0 0 nan
nan -0 -0 -0 -0 -0 -0 -0 0 0 -0 0 0 -0 -1 -1 -0 -0 -0 0 0 0 -0 -0 -0 0 0 0 0 0 0 0 0 0 0 0 0 0 0 -0 0 0 0 0 0 0 0 -0 nan
nan -0 -0 -0 0 -1 -0 -0 -0 -0 -0 -0 0 0 -0 -0 -0 -0 -0 -0 -0 0 -0 -0 -0 -0 -0 0 0 0 0 0 0 0 0 0 0 0 -0 -0 -0 0 0 0 -0 0 -0 -0 nan
nan -0 0 0 -0 -1 -0 -0 -0 -0 -1 -0 -0 -0 0 -0 -0 -0 -1 -1 -1 -0 -0 -0 -0 -0 -0 -0 0 0 0 0 0 0 0 0 0 -0 -0 -0 -0 -0 0 0 -0 -0 -0 -0 nan
nan -0 0 0 0 -0 -1 -0 -0 -0 -1 -0 -1 -0 -0 -0 -0 -0 -0 -0 -0 -0 -0 0 0 0 -0 0 -0 -0 -0 -0 0 -0 -0 0 -0 -0 -0 0 0 -0 -0 -0 -0 -0 -0 -0 nan
nan -0 0 0 0 0 -0 -0 -0 0 -0 0 -0 -0 -1 -1 -1 -0 -0 -0 -0 0 0 -0 0 0 0 0 -0 -0 -0 0 -0 -0 0 0 -0 0 -0 0 0 0 0 0 -0 0 0 -0 nan
nan -0 0 0 -0 0 0 -0 -0 -0 0 0 0 -0 -1 -1 -0 -0 -0 0 0 0 0 -0 0 0 0 0 0 0 0 -0 0 0 0 -0 -0 0 0 0 -0 0 0 0 0 -0 0 -0 nan
nan 0 0 0 -0 0 0 0 0 -0 -0 0 0 -0 -1 -0 -0 -0 0 0 0 0 0 0 0 0 0 -0 0 0 -0 -0 -0 -0 -0 -0 0 0 0 0 0 -0 -0 0 0 -0 0 0 nan
nan 0 0 0 0 0 0 -0 -0 -0 0 -0 -0 -0 -0 -0 -0 -0 0 0 0 0 0 0 -0 -0 -0 -0 -0 -0 -0 -0 -0 0 -0 -0 0 0 0 0 0 -0 -0 0 0 0 -0 0 nan
nan -0 -0 0 0 0 -0 -1 -0 -0 -0 -0 -0 -0 -0 -0 0 0 -0 0 -0 0 0 0 0 0 0 -0 -0 -0 -0 -0 0 0 0 0 0 0 0 0 0 0 -0 -0 -0 0 -0 -0 nan
nan 0 0 -0 0 -0 -0 -0 -0 -0 -1 -1 -0 -0 -0 -0 -0 -0 0 -0 0 0 0 0 0 0 0 0 -0 -0 -0 0 0 0 0 0 -0 0 0 0 0 -0 0 0 -0 -0 -0 -0 nan
nan -0 -0 -0 -0 -0 -0 0 -0 0 -0 -0 -0 -0 -1 -1 -0 -0 0 -0 0 0 0 0 0 0 0 -0 -0 -0 -0 -0 -0 -0 0 -0 0 0 -0 0 -0 -0 0 0 0 -0 -0 0 nan
nan -0 -0 -0 -1 -0 -1 0 -0 -0 -0 0 -0 -0 -0 -0 -0 0 0 -0 -0 0 0 -0 0 0 -0 -0 -0 -0 -0 -0 -0 -0 0 0 0 -0 0 0 0 0 0 0 0 -0 -0 0 nan
nan 0 -0 0 0 -0 -0 0 0 -1 0 0 0 -0 -0 -0 -0 0 -0 -0 -0 -0 0 0 0 0 -0 -0 -0 0 0 0 0 0 0 0 -0 0 0 -0 0 0 0 0 0 -0 -0 0 nan
nan -0 -0 0 0 -0 0 0 -0 -0 0 0 0 0 -0 0 0 -0 -0 -0 -0 -0 0 0 0 -0 -0 -0 0 0 -0 -0 -0 0 0 -0 0 -0 -0 0 0 0 -0 0 0 0 -0 -0 nan
nan -1 0 0 0 -0 0 -0 -1 0 -0 -0 -0 -0 -0 0 0 0 0 -0 -0 0 0 0 -0 -0 -0 -0 -0 -0 -0 -1 -0 -0 0 1 0 0 0 0 -0 -0 0 0 0 0 0 -0 nan
nan -0 1 0 0 0 0 -0 -0 0 -0 -1 -1 -0 -0 0 0 0 0 -0 0 0 0 -0 -1 -1 -0 0 0 0 -0 -0 0 0 1 0 -0 0 0 -0 -0 0 0 0 0 0 -0 -0 nan
nan 0 0 1 1 0 -1 -0 -0 -0 -0 -1 -0 -0 0 0 0 0 0 0 0 0 0 -0 -1 -1 0 0 0 -0 -0 0 0 0 0 -0 0 0 0 -0 -0 0 0 0 -0 0 0 0 nan
nan 1 1 1 0 -1 -0 0 -1 -1 -0 -0 0 0 1 0 0 -0 0 -0 0 0 0 0 -0 -0 0 0 -0 -0 0 0 0 0 -0 -0 0 0 0 -0 0 0 0 -0 -0 0 0 -0 nan
nan -0 0 -1 -1 -1 0 -0 -1 -1 0 -0 0 1 -0 0 -0 -0 -0 -0 -0 0 0 -0 -1 -1 0 0 -1 -0 0 -0 -0 -0 0 0 0 0 0 0 0 0 0 -0 0 0 -0 0 nan
nan -1 -0 -0 0 0 0 -0 -1 -0 0 -0 0 0 0 0 0 -0 -0 -0 -0 -0 -0 -1 -1 -0 1 0 -1 0 0 -0 0 0 1 0 0 0 0 -0 1 0 0 0 0 -0 0 0 nan
nan 0 1 0 1 -0 -0 -0 -0 -0 -1 -0 -0 0 0 -0 0 0 -0 -1 -0 -0 -1 -1 -0 1 1 -0 -1 0 1 1 1 1 -0 -0 -0 0 -0 -0 0 0 0 0 -0 -0 0 -0 nan
nan 0 -1 0 1 0 -0 -2 -1 -0 -0 -1 0 -0 -0 0 0 0 -0 0 -0 -0 -0 -0 0 -0 -0 -1 -1 1 2 1 1 -0 -1 -1 -0 0 0 0 1 0 0 1 0 -0 -0 0 nan
nan nan nan nan nan nan nan nan nan nan nan nan nan nan nan nan nan nan nan nan nan nan nan nan nan nan nan nan nan nan nan nan nan nan nan nan nan nan nan nan nan nan nan nan nan nan nan nan nan
Wind_Speed
5 6 5 5 6 4 12 8 8 8 8 9 8 5 10 9 3 7 20 17 19 15 18 24 21 17 19 19 20 21 22 21 21 21 19 18 16 14 12 11 10 9 8 8 9 10 11 11 12
10 8 3 9 3 5 8 8 10 10 15 14 12 8 6 5 8 21 22 20 18 19 18 16 16 16 18 18 19 21 21 19 19 19 17 15 12 9 10 9 8 7 6 7 8 8 10 11 11
9 7 8 4 4 8 10 8 11 13 12 5 5 10 7 10 20 21 22 22 19 18 16 16 17 16 16 17 19 20 19 18 18 18 17 13 8 7 7 6 6 6 6 5 6 8 10 10 10
6 5 7 2 12 7 10 10 13 12 8 3 9 12 14 17 16 18 23 21 18 16 13 18 17 15 15 17 18 19 18 16 16 16 14 11 8 7 5 4 4 5 4 4 6 8 9 9 9
4 4 3 9 11 9 9 12 10 6 7 8 11 12 16 10 13 22 20 19 18 16 14 14 15 15 16 18 21 21 17 15 15 15 13 12 9 5 4 3 4 5 5 5 8 8 8 8 7
10 6 3 10 11 8 8 11 7 5 9 8 15 19 13 13 20 20 19 18 18 17 14 13 16 15 17 20 22 20 15 13 13 13 13 11 7 3 2 1 4 5 5 7 8 8 8 7 6
9 6 5 9 10 8 9 10 6 8 10 10 21 14 14 18 19 20 18 18 18 17 15 14 13 15 17 18 19 18 12 12 11 11 10 9 5 3 1 1 5 4 5 5 6 6 7 7 6
5 6 4 2 6 12 11 12 7 8 8 16 13 6 16 23 22 22 21 19 18 17 15 14 15 14 14 16 17 15 14 12 10 10 9 7 5 3 2 2 3 3 4 5 5 5 6 6 5
5 6 4 5 4 11 15 10 9 7 13 10 13 9 21 26 24 24 21 19 17 17 16 14 13 13 15 13 14 14 13 12 11 10 8 5 3 3 3 6 5 4 4 4 5 5 6 6 10
9 7 5 4 1 12 17 13 15 10 14 12 13 10 26 27 26 26 24 22 20 18 17 16 14 13 13 12 12 11 10 10 10 8 7 4 5 4 3 5 3 4 3 3 4 5 5 9 4
8 11 6 1 2 13 20 13 14 11 12 14 18 19 29 29 27 26 24 22 21 19 17 16 16 14 13 13 11 11 11 11 11 11 9 7 5 4 3 3 1 1 3 2 4 4 3 4 5
10 11 10 5 8 13 18 17 13 12 4 15 17 22 31 29 28 26 24 22 21 20 19 17 16 16 15 13 12 12 12 12 11 10 11 9 5 5 4 3 2 2 3 3 4 5 6 8 10
12 11 9 9 9 13 16 16 10 14 9 13 18 24 30 29 27 25 24 22 21 20 19 18 18 17 16 15 13 12 13 12 11 10 11 10 8 9 6 7 6 5 6 6 6 7 8 9 9
5 8 9 10 12 14 15 11 12 14 14 13 21 25 29 29 28 26 25 23 22 21 20 18 19 18 17 16 16 15 12 12 12 12 12 13 10 11 7 7 7 7 7 6 5 8 9 10 10
10 11 5 10 15 10 15 11 14 12 16 15 21 23 27 28 27 28 26 25 24 22 21 21 19 19 18 17 16 14 13 12 13 13 13 13 12 13 10 9 8 7 8 9 8 9 10 11 12
14 14 12 11 16 10 16 12 17 16 19 17 19 23 27 28 27 27 26 25 25 23 23 22 20 19 19 17 17 16 14 14 13 13 13 14 13 12 11 11 9 10 10 10 9 9 10 12 11
15 14 13 12 15 7 16 7 16 18 19 18 19 23 26 26 27 27 26 26 24 23 23 23 23 21 21 19 17 18 16 16 17 15 16 15 15 14 12 11 10 11 12 13 8 10 12 10 10
18 17 11 14 15 13 17 10 5 15 20 20 21 23 25 27 30 27 26 24 24 23 22 22 22 22 21 20 19 18 17 14 14 14 15 13 13 12 12 11 11 12 11 8 10 11 10 8 9
17 15 13 16 14 17 15 13 10 12 17 20 21 24 25 27 26 26 26 25 25 24 23 22 23 22 20 18 17 17 16 16 16 15 16 14 13 14 14 10 11 10 8 9 9 10 9 6 7
20 18 17 14 8 15 12 14 12 13 18 21 24 25 26 25 25 27 27 27 27 26 24 23 24 25 24 19 18 18 16 14 14 13 14 14 14 14 11 11 9 11 8 10 7 6 4 5 5
22 21 18 16 11 15 10 14 14 16 18 20 23 26 28 28 28 29 30 30 28 28 27 26 25 25 24 24 19 15 16 15 12 13 11 10 11 11 11 12 9 11 9 7 4 4 5 3 4
23 22 19 16 12 13 16 12 14 15 16 18 25 28 29 31 29 29 31 31 30 29 27 26 25 25 24 24 23 21 15 14 12 12 11 12 11 10 10 9 9 12 6 6 4 4 3 2 3
24 21 20 20 15 18 15 10 13 5 14 19 26 32 33 33 33 32 31 32 31 28 28 27 27 27 25 24 24 22 19 16 14 13 13 13 13 11 11 11 11 11 4 7 5 3 3 3 4
19 16 12 17 15 18 24 15 15 13 15 16 18 29 34 34 33 32 31 30 32 30 29 27 28 29 28 26 24 25 20 19 16 16 13 12 12 12 13 12 12 9 7 6 4 5 4 4 5
22 17 11 15 15 15 18 20 16 12 12 16 16 22 31 34 33 33 34 34 33 34 31 29 30 31 30 29 27 25 24 23 20 18 15 13 12 12 13 14 13 8 7 7 6 6 5 3 3
26 25 16 23 15 14 21 16 18 19 22 26 18 17 24 34 36 37 37 36 35 34 34 32 31 33 32 31 31 30 27 23 21 19 17 15 13 12 11 11 12 10 10 8 8 7 5 6 6
28 25 26 25 20 16 17 14 22 17 15 17 16 16 22 31 39 39 37 38 36 35 36 38 37 35 34 32 33 33 30 28 22 19 18 15 14 11 13 11 12 10 11 10 10 8 9 8 8
29 21 24 20 26 23 20 18 11 18 19 17 14 18 22 27 33 40 41 41 40 37 37 37 38 38 34 33 34 33 31 29 25 22 23 20 15 13 13 12 12 11 10 12 12 11 11 11 9
20 23 21 23 21 19 18 19 16 16 15 15 12 17 19 23 31 36 43 42 39 37 37 36 34 35 36 34 37 36 30 27 26 24 24 19 19 14 14 13 13 13 13 13 15 14 12 12 11
26 25 26 17 27 20 22 18 12 13 17 23 25 19 12 17 26 32 36 38 40 40 38 37 35 33 34 38 40 36 30 27 27 26 27 21 22 16 12 8 16 17 16 15 17 16 13 12 13
Wind_Direction
184 156 161 234 237 134 138 185 122 130 121 73 68 88 77 42 83 77 142 133 135 126 137 143 138 133 132 130 137 146 142 141 137 137 135 134 120 104 90 84 82 80 69 61 53 47 40 38 35
167 170 257 272 261 107 84 121 103 78 108 114 92 115 96 83 74 121 136 141 131 131 136 143 143 136 133 129 132 141 149 141 145 146 146 143 129 108 85 75 73 76 61 48 44 39 34 29 29
173 201 270 296 21 49 100 109 100 115 129 106 105 69 79 102 121 131 146 141 137 138 141 159 147 144 140 139 138 141 147 148 150 153 151 148 142 119 86 73 68 60 42 32 32 28 22 18 15
172 212 239 36 79 76 99 118 125 130 130 98 107 90 93 126 124 141 143 143 146 145 137 149 147 147 147 145 145 148 149 148 154 159 161 156 146 122 95 82 67 39 20 28 24 19 11 8 9
226 250 185 80 77 87 108 127 146 127 125 132 123 116 119 134 137 142 147 148 151 148 141 146 144 143 148 150 151 145 142 147 156 164 162 153 141 122 111 98 27 9 27 26 11 5 9 8 19
226 249 151 83 96 107 121 149 147 107 126 129 132 123 124 144 143 149 152 154 150 149 147 149 143 142 146 154 158 150 148 147 151 154 154 154 152 137 141 95 2 9 21 9 2 359 14 19 22
274 246 53 95 109 140 141 159 176 137 149 147 144 130 136 148 152 151 152 150 150 154 148 150 149 149 150 156 164 168 158 152 148 157 161 167 162 167 208 353 354 3 357 0 359 6 19 25 24
280 271 160 228 145 114 150 168 136 144 124 142 153 160 158 158 153 152 153 155 154 155 162 156 161 157 152 158 165 170 168 165 164 160 165 169 177 189 251 324 346 346 360 3 356 12 17 17 18
247 249 143 97 247 127 153 155 157 133 143 166 165 151 158 158 155 156 161 159 162 164 165 164 163 162 153 166 167 171 177 179 173 168 168 164 157 243 286 262 300 302 305 339 358 1 5 26 17
233 272 84 31 171 148 162 167 160 168 162 173 163 141 158 161 163 166 169 168 170 171 171 169 173 171 164 166 183 176 182 181 178 184 204 183 223 232 257 291 283 305 326 354 0 10 19 33 2
211 262 88 178 196 164 167 176 169 171 180 181 176 160 164 167 172 175 176 177 176 175 175 179 178 176 177 185 182 188 196 199 207 205 204 222 225 243 241 251 302 310 322 345 339 348 321 318 339
253 239 276 285 172 184 170 165 178 176 130 179 179 172 169 175 178 181 181 181 181 182 183 184 188 189 189 198 192 197 200 204 208 218 222 217 223 244 230 238 258 342 289 276 288 293 307 317 321
240 262 266 260 208 190 178 175 166 181 146 170 173 173 178 180 183 186 188 187 185 187 188 191 195 198 197 201 200 201 204 213 213 219 224 216 225 233 230 248 239 249 288 291 307 312 306 314 323
272 251 265 251 192 182 186 173 175 182 176 171 175 179 183 186 188 189 192 193 193 194 195 198 203 206 205 206 207 208 216 215 220 223 224 230 227 255 259 277 267 281 277 280 291 297 306 308 315
228 238 219 225 174 173 195 178 209 156 174 171 183 186 187 192 192 194 195 197 199 201 200 202 203 210 209 211 214 215 219 222 224 226 231 230 237 243 254 266 268 274 270 292 301 311 315 320 317
218 229 220 162 174 168 195 197 198 170 176 180 185 187 190 194 196 199 200 200 202 202 205 205 205 210 214 214 216 214 218 221 225 228 232 235 245 257 263 265 264 261 272 274 286 304 303 312 313
208 227 217 156 192 160 201 242 161 184 191 186 189 189 191 196 200 202 202 203 203 204 207 208 210 210 213 217 217 218 223 223 229 235 237 243 250 251 250 258 261 270 284 277 286 300 305 305 309
209 224 192 198 189 194 200 223 139 188 202 199 193 195 196 199 204 202 201 202 203 205 205 208 210 212 215 215 217 220 226 238 241 243 249 244 247 239 252 253 262 277 286 298 293 292 290 293 301
225 211 216 215 157 203 215 221 191 192 209 210 202 201 203 206 202 201 202 202 202 204 207 209 211 214 213 220 216 225 228 235 237 237 249 249 248 249 260 265 277 270 285 279 286 296 299 293 302
239 225 220 194 169 218 218 233 228 197 214 211 208 207 210 209 201 201 202 202 205 206 208 211 213 216 218 220 218 217 226 231 241 242 244 239 241 243 251 254 267 269 275 293 285 283 272 297 297
225 230 219 218 183 229 249 234 233 213 210 216 216 213 213 211 206 204 203 204 204 206 209 212 215 217 220 215 223 225 226 221 239 242 251 255 246 249 254 263 248 266 290 276 267 280 269 269 279
226 223 234 223 205 226 205 245 228 217 206 213 214 213 215 213 211 209 208 207 207 209 210 213 216 219 222 222 218 223 220 227 230 230 233 232 243 245 245 244 250 287 258 229 252 266 216 216 263
233 228 220 246 219 241 181 241 256 184 228 217 218 215 213 212 212 210 209 210 209 209 210 212 216 223 219 220 214 223 225 227 223 224 225 230 240 226 227 227 257 281 241 240 235 249 225 254 233
227 250 235 235 235 232 234 212 233 218 231 243 224 217 214 211 210 211 211 209 211 209 209 211 215 221 224 219 221 217 218 216 217 222 225 222 220 227 221 227 253 265 218 229 251 237 237 222 245
217 213 209 218 226 239 211 234 230 249 221 241 261 209 214 211 207 206 208 207 207 207 207 209 213 217 222 223 221 221 222 222 223 224 229 224 227 227 231 236 252 243 232 231 229 237 218 241 232
214 216 224 220 221 220 231 236 234 234 259 259 256 245 202 208 207 206 205 206 207 206 207 208 213 215 219 224 228 229 226 223 226 228 222 227 224 229 229 242 252 241 228 229 228 217 222 247 261
204 221 229 243 229 246 226 211 240 245 245 247 243 220 205 206 208 205 205 206 206 206 207 210 216 218 218 221 227 230 230 225 220 218 225 225 226 224 220 239 253 240 233 232 226 216 235 237 248
227 210 220 231 238 228 234 240 221 219 226 241 210 217 211 207 207 206 206 204 204 205 208 211 217 222 221 221 226 228 228 230 222 216 216 214 224 231 230 237 248 236 239 246 237 235 245 236 239
208 223 219 234 228 242 239 236 226 236 256 269 263 216 221 209 208 207 208 208 204 205 207 210 213 218 220 222 226 226 224 220 224 217 229 232 228 239 241 259 259 247 259 247 244 237 234 242 247
222 213 215 221 224 236 246 245 214 225 230 241 247 260 231 222 213 210 209 206 204 206 207 210 212 213 216 220 226 226 222 216 216 215 225 221 235 223 208 280 295 266 265 250 243 243 239 243 242
Height
1509 1510 1515 1514 1505 1489 1518 1518 1502 1508 1512 1517 1520 1520 1523 1528 1526 1536 1545 1548 1551 1552 1553 1554 1557 1558 1560 1561 1563 1565 1567 1569 1571 1573 1575 1577 1578 1580 1581 1581 1582 1582 1583 1582 1582 1582 1581 1580 1579
1511 1513 1515 1504 1493 1502 1505 1500 1504 1507 1515 1519 1522 1523 1523 1532 1534 1538 1546 1550 1552 1556 1558 1558 1558 1560 1562 1564 1565 1567 1569 1571 1573 1576 1577 1579 1581 1582 1582 1583 1584 1584 1584 1583 1583 1583 1582 1581 1580
1513 1513 1508 1494 1491 1500 1507 1502 1508 1515 1517 1518 1521 1524 1527 1534 1539 1543 1547 1551 1555 1557 1560 1558 1560 1562 1564 1566 1568 1570 1572 1574 1576 1578 1580 1581 1583 1584 1584 1585 1586 1586 1585 1585 1584 1584 1583 1582 1581
1514 1515 1507 1497 1503 1503 1503 1505 1512 1516 1519 1521 1522 1527 1535 1539 1542 1545 1549 1553 1557 1558 1561 1561 1563 1564 1566 1568 1570 1572 1575 1576 1578 1580 1581 1583 1584 1585 1586 1586 1587 1587 1586 1586 1585 1584 1583 1583 1581
1513 1508 1494 1498 1504 1503 1504 1510 1512 1512 1517 1521 1522 1529 1537 1543 1545 1547 1551 1555 1558 1561 1563 1564 1565 1567 1569 1570 1572 1574 1576 1578 1580 1581 1583 1584 1585 1586 1587 1588 1588 1587 1587 1586 1585 1584 1583 1583 1582
1506 1502 1491 1501 1506 1506 1508 1513 1514 1515 1520 1524 1525 1532 1539 1543 1546 1550 1553 1556 1559 1562 1564 1566 1567 1569 1570 1572 1574 1576 1578 1580 1581 1583 1584 1586 1587 1588 1588 1588 1588 1588 1588 1587 1586 1585 1584 1582 1582
1499 1493 1498 1495 1506 1507 1509 1513 1513 1516 1522 1525 1528 1530 1540 1545 1548 1551 1554 1558 1561 1564 1566 1569 1570 1570 1572 1574 1576 1578 1580 1581 1583 1584 1586 1587 1588 1589 1589 1589 1589 1588 1588 1587 1587 1585 1584 1583 1582
1502 1494 1497 1495 1497 1504 1508 1512 1515 1517 1522 1526 1529 1532 1538 1543 1548 1552 1556 1559 1562 1566 1568 1569 1570 1572 1575 1575 1577 1579 1581 1582 1584 1585 1587 1587 1588 1589 1589 1589 1588 1588 1587 1587 1586 1584 1584 1583 1582
1505 1492 1495 1493 1494 1500 1507 1509 1516 1519 1524 1528 1531 1532 1538 1543 1548 1553 1556 1559 1562 1566 1569 1571 1572 1573 1574 1578 1578 1580 1581 1583 1585 1586 1587 1588 1592 1592 1591 1589 1588 1588 1587 1586 1585 1584 1584 1583 1583
1500 1487 1489 1490 1490 1496 1505 1508 1514 1519 1523 1527 1532 1535 1539 1543 1548 1551 1555 1558 1562 1566 1569 1571 1573 1574 1576 1579 1579 1581 1583 1585 1586 1588 1588 1590 1590 1590 1589 1589 1588 1587 1586 1586 1585 1585 1585 1585 1587
1492 1489 1488 1491 1494 1494 1502 1507 1512 1514 1519 1522 1529 1534 1539 1543 1547 1551 1555 1558 1562 1565 1568 1570 1572 1573 1576 1578 1580 1582 1584 1586 1586 1586 1587 1589 1589 1590 1590 1590 1589 1588 1586 1589 1588 1587 1587 1584 1583
1492 1488 1490 1489 1496 1496 1499 1504 1509 1514 1515 1521 1527 1533 1537 1542 1546 1550 1554 1558 1561 1564 1567 1570 1572 1573 1576 1576 1579 1581 1584 1585 1586 1587 1586 1587 1588 1588 1588 1589 1588 1587 1588 1586 1585 1586 1583 1582 1581
1489 1487 1487 1489 1494 1495 1499 1502 1506 1513 1517 1520 1526 1532 1536 1541 1545 1550 1553 1557 1560 1563 1566 1569 1570 1571 1573 1575 1579 1581 1582 1583 1585 1585 1585 1587 1588 1587 1587 1586 1586 1585 1587 1587 1585 1584 1583 1581 1581
1482 1485 1485 1486 1490 1495 1498 1502 1507 1510 1515 1520 1525 1529 1534 1539 1542 1547 1551 1555 1558 1561 1564 1566 1568 1569 1571 1573 1575 1577 1579 1582 1583 1584 1585 1583 1585 1585 1586 1587 1586 1585 1586 1585 1584 1582 1581 1580 1579
1484 1486 1487 1485 1488 1493 1496 1504 1504 1507 1514 1518 1523 1528 1532 1536 1540 1543 1547 1551 1554 1558 1561 1563 1566 1567 1568 1570 1572 1575 1578 1579 1581 1582 1582 1582 1583 1582 1583 1585 1584 1585 1583 1582 1581 1581 1580 1580 1579
1483 1480 1482 1482 1487 1491 1495 1491 1498 1505 1511 1515 1520 1524 1529 1533 1537 1541 1544 1547 1550 1554 1557 1560 1563 1565 1567 1569 1570 1573 1575 1577 1578 1580 1581 1579 1581 1581 1582 1583 1583 1582 1581 1582 1581 1580 1580 1579 1578
1475 1481 1477 1483 1484 1489 1494 1487 1492 1502 1506 1511 1517 1521 1525 1530 1533 1536 1540 1543 1547 1550 1553 1555 1558 1561 1563 1565 1568 1570 1573 1574 1574 1576 1576 1578 1578 1579 1580 1580 1581 1579 1578 1578 1578 1579 1578 1577 1576
1476 1477 1468 1474 1481 1484 1489 1485 1493 1499 1502 1505 1512 1517 1521 1524 1526 1531 1535 1540 1543 1547 1549 1552 1555 1557 1560 1562 1564 1567 1570 1571 1573 1574 1573 1575 1575 1576 1576 1577 1577 1577 1576 1577 1577 1575 1576 1574 1574
1460 1466 1469 1463 1468 1479 1479 1481 1483 1496 1499 1500 1506 1511 1515 1518 1522 1527 1531 1535 1539 1543 1545 1548 1551 1554 1557 1559 1562 1565 1568 1570 1570 1572 1571 1572 1573 1573 1574 1575 1574 1575 1575 1575 1574 1574 1574 1573 1572
1460 1465 1465 1458 1467 1475 1471 1477 1478 1484 1493 1495 1499 1504 1509 1514 1518 1522 1526 1530 1533 1537 1541 1544 1547 1550 1552 1556 1559 1562 1564 1567 1568 1570 1569 1570 1571 1571 1571 1572 1573 1573 1575 1572 1572 1571 1572 1572 1571
1460 1462 1461 1461 1469 1471 1469 1477 1473 1474 1484 1490 1493 1497 1502 1506 1511 1516 1520 1524 1528 1532 1535 1539 1542 1545 1547 1552 1555 1557 1559 1562 1564 1566 1566 1566 1567 1568 1569 1569 1571 1571 1571 1572 1570 1570 1570 1571 1570
1462 1451 1455 1458 1468 1483 1467 1484 1463 1460 1472 1480 1486 1489 1493 1498 1504 1509 1514 1518 1522 1525 1530 1533 1536 1540 1544 1546 1551 1553 1557 1559 1561 1563 1565 1565 1565 1566 1567 1567 1568 1568 1569 1569 1568 1567 1568 1568 1570
1455 1447 1455 1457 1461 1467 1465 1479 1461 1457 1464 1466 1472 1477 1482 1488 1495 1501 1506 1512 1516 1521 1524 1528 1531 1535 1539 1542 1545 1550 1552 1556 1558 1559 1560 1560 1562 1563 1564 1564 1564 1564 1565 1566 1565 1566 1566 1569 1569
1451 1453 1452 1454 1458 1474 1458 1467 1463 1454 1457 1453 1457 1467 1473 1480 1487 1494 1500 1505 1510 1514 1518 1522 1525 1529 1534 1537 1540 1544 1549 1551 1554 1555 1557 1559 1561 1560 1561 1562 1562 1562 1564 1564 1565 1564 1565 1566 1567
1450 1456 1475 1481 1474 1472 1447 1459 1456 1441 1441 1445 1445 1451 1464 1472 1479 1485 1491 1496 1501 1506 1511 1516 1519 1523 1528 1531 1534 1538 1542 1546 1550 1553 1555 1557 1559 1560 1560 1560 1562 1563 1563 1564 1564 1564 1566 1566 1567
1444 1445 1456 1480 1472 1465 1448 1461 1448 1440 1441 1441 1440 1446 1453 1462 1468 1474 1481 1487 1493 1498 1503 1509 1512 1516 1521 1525 1528 1532 1536 1542 1546 1549 1552 1554 1556 1557 1559 1560 1561 1562 1562 1561 1560 1562 1564 1566 1567
1434 1441 1432 1443 1437 1449 1439 1443 1437 1432 1436 1436 1437 1441 1443 1450 1456 1464 1472 1477 1484 1491 1495 1499 1504 1510 1515 1519 1522 1526 1530 1534 1542 1546 1548 1551 1553 1556 1556 1556 1560 1561 1561 1560 1560 1561 1561 1561 1562
1419 1425 1448 1434 1458 1463 1447 1441 1441 1432 1428 1425 1427 1433 1436 1442 1448 1454 1461 1467 1474 1482 1487 1492 1498 1503 1509 1513 1516 1520 1524 1530 1536 1540 1541 1544 1549 1553 1555 1555 1555 1555 1558 1560 1559 1560 1559 1558 1558
1422 1422 1423 1425 1430 1447 1455 1439 1416 1425 1424 1423 1420 1425 1429 1434 1440 1445 1451 1458 1467 1475 1481 1486 1491 1496 1501 1506 1509 1514 1519 1525 1529 1534 1539 1545 1543 1545 1552 1555 1554 1554 1552 1554 1557 1556 1556 1556 1556
1404 1414 1416 1428 1438 1424 1429 1426 1404 1409 1417 1419 1418 1416 1419 1426 1431 1437 1444 1452 1459 1465 1473 1479 1484 1489 1493 1498 1502 1508 1514 1519 1522 1527 1532 1537 1543 1539 1541 1550 1554 1553 1550 1550 1553 1553 1553 1551 1551